Tracking 28915 objects as of 29-May-2024
HD Live streaming from Space Station
objects crossing your sky now

FLOCK 4X 32

Track FLOCK 4X 32 now!
10-day predictions


NORAD ID: 51024
Int'l Code: 2022-002AS
Perigee: 430.5 km
Apogee: 437.9 km
Inclination: 97.4 °
Period: 93.1 minutes
Semi major axis: 6805 km
RCS: Unknown
Launch date: January 13, 2022
Source: United States (US)
Launch site: AIR FORCE EASTERN TEST RANGE (AFETR)
Your satellite tracking list
Your tracking list is empty




NASA's NSSDC Master Catalog

Two Line Element Set (TLE):
1 51024U 22002AS  24149.73185607  .00025306  00000-0  51137-3 0  9991
2 51024  97.3945 225.6382 0005432  76.6741 283.5114 15.46456377132002
Source of the keplerian elements: AFSPC